M I D A S
Marine Information and Data Acquisition System
Tripno 966 of the Zeeleeuw from 2005-10-04 06:33:46 to 2005-10-04 17:37:35
Back to CruiseResearch ActivitiesStationsMapUnderway DataData graphs

EquipmentUnitsComments
TimeDGPSUTC
LatitudeDGPSDM.mWGS84
LongitudeDGPSDM.mWGS84
SpeedMeteo Stationm/sRelative wind speed
DirectionMeteo StationdegRelative wind direction
TemperatureMeteo Stationdeg CelciusAir temperature
PressureMeteo StationPaAtmospheric pressure
HumidityMeteo Station%Relative humidity
Missing or incorrect values are displayed as -999
Metereological data collected by the RV Zeeleeuw from 2005-10-04 06:35:46 to 2005-10-04 17:46:46
Time Latitude Longitude Speed Direction Temperature Pressure Humidity
2005-10-04 06:36 51°13.617 2°56.028 -999 275 12.4 102920 86
2005-10-04 06:37 51°13.646 2°55.931 -999 236 12.4 102920 86
2005-10-04 06:38 51°13.695 2°55.831 -999 244 12.4 102910 86
2005-10-04 06:39 51°13.757 2°55.729 -999 216 12.5 102910 86
2005-10-04 06:40 51°13.836 2°55.647 -999 220 12.6 102920 86
2005-10-04 06:41 51°13.919 2°55.626 -999 221 12.8 102920 85
2005-10-04 06:42 51°13.964 2°55.643 -999 185 12.9 102920 84
2005-10-04 06:43 51°13.987 2°55.563 -999 62 13 102920 83
2005-10-04 06:44 51°14.096 2°55.447 -999 56 13.1 102910 82
2005-10-04 06:45 51°14.231 2°55.305 -999 72 13.1 102900 82
2005-10-04 06:46 51°14.344 2°55.089 -999 67 13 102910 84
2005-10-04 06:47 51°14.463 2°54.826 -999 64 13.2 102900 86
2005-10-04 06:48 51°14.612 2°54.572 -999 59 13.4 102890 86
2005-10-04 06:49 51°14.781 2°54.369 -999 61 13.6 102890 84
2005-10-04 06:50 51°14.954 2°54.186 -999 56 13.8 102880 83
2005-10-04 06:51 51°15.123 2°54.001 -999 53 13.8 102890 81
2005-10-04 06:52 51°15.3 2°53.826 -999 48 14 102890 81
2005-10-04 06:53 51°15.482 2°53.652 -999 53 13.9 102890 79
2005-10-04 06:54 51°15.662 2°53.472 -999 55 14 102880 80
2005-10-04 06:55 51°15.843 2°53.297 -999 58 14 102880 79
2005-10-04 06:56 51°16.026 2°53.132 -999 56 14.1 102880 80
2005-10-04 06:57 51°16.212 2°52.983 -999 54 14.1 102880 79
2005-10-04 06:58 51°16.404 2°52.874 -999 43 14.1 102880 78
2005-10-04 06:59 51°16.601 2°52.795 -999 45 14.1 102870 78
2005-10-04 07:00 51°16.797 2°52.726 -999 49 14.1 102870 78
2005-10-04 07:01 51°16.991 2°52.654 -999 48 14.2 102880 79
2005-10-04 07:02 51°17.186 2°52.598 -999 54 14.2 102880 80
2005-10-04 07:03 51°17.38 2°52.525 -999 44 14.2 102880 78
2005-10-04 07:04 51°17.576 2°52.513 -999 40 14.2 102880 78
2005-10-04 07:05 51°17.77 2°52.528 -999 40 14.2 102870 77
2005-10-04 07:06 51°17.959 2°52.568 -999 29 14.3 102880 78
2005-10-04 07:07 51°18.144 2°52.635 -999 33 14.2 102880 78
2005-10-04 07:08 51°18.332 2°52.699 -999 31 14.2 102880 78
2005-10-04 07:09 51°18.525 2°52.734 -999 35 14.2 102880 77
2005-10-04 07:10 51°18.716 2°52.759 -999 37 14.2 102870 77
2005-10-04 07:11 51°18.907 2°52.779 -999 35 14.2 102880 77
2005-10-04 07:12 51°19.098 2°52.803 -999 37 14.2 102870 77
2005-10-04 07:13 51°19.29 2°52.822 -999 29 14.2 102870 77
2005-10-04 07:14 51°19.483 2°52.823 -999 37 14.2 102870 75
2005-10-04 07:15 51°19.678 2°52.817 -999 40 14.2 102880 75
2005-10-04 07:16 51°19.874 2°52.801 -999 36 14.3 102870 75
2005-10-04 07:17 51°20.069 2°52.797 -999 41 14.3 102880 76
2005-10-04 07:18 51°20.265 2°52.789 -999 36 14.3 102880 77
2005-10-04 07:19 51°20.46 2°52.779 -999 38 14.3 102870 75
2005-10-04 07:20 51°20.655 2°52.779 -999 35 14.3 102870 74
2005-10-04 07:21 51°20.847 2°52.802 -999 34 14.3 102870 75
2005-10-04 07:22 51°21.023 2°52.902 -999 23 14.3 102880 75
2005-10-04 07:23 51°21.198 2°53.01 -999 28 14.3 102880 74
2005-10-04 07:24 51°21.373 2°53.119 -999 22 14.4 102880 74
2005-10-04 07:25 51°21.55 2°53.223 -999 22 14.4 102880 75
2005-10-04 07:26 51°21.727 2°53.329 -999 24 14.4 102890 74
2005-10-04 07:27 51°21.906 2°53.431 -999 24 14.4 102880 74
2005-10-04 07:28 51°22.085 2°53.537 -999 27 14.4 102880 74
2005-10-04 07:29 51°22.261 2°53.649 -999 24 14.4 102880 75
2005-10-04 07:30 51°22.424 2°53.793 -999 18 14.4 102890 74
2005-10-04 07:31 51°22.579 2°53.954 -999 13 14.4 102890 74
2005-10-04 07:32 51°22.736 2°54.113 -999 21 14.4 102890 73
2005-10-04 07:33 51°22.893 2°54.286 -999 18 14.4 102880 74
2005-10-04 07:34 51°23.052 2°54.459 -999 23 14.4 102880 74
2005-10-04 07:35 51°23.208 2°54.632 -999 20 14.4 102880 73
2005-10-04 07:36 51°23.362 2°54.801 -999 20 14.4 102890 74
2005-10-04 07:37 51°23.516 2°54.968 -999 25 14.4 102890 74
2005-10-04 07:38 51°23.67 2°55.134 -999 21 14.5 102890 74
2005-10-04 07:39 51°23.824 2°55.298 -999 21 14.5 102880 74
2005-10-04 07:40 51°23.979 2°55.458 -999 18 14.4 102890 73
2005-10-04 07:41 51°24.075 2°55.701 -999 358 14.5 102880 75
2005-10-04 07:42 51°24.159 2°55.962 -999 357 14.5 102870 74
2005-10-04 07:43 51°24.245 2°56.225 -999 2 14.4 102870 72
2005-10-04 07:44 51°24.31 2°56.503 -999 4 14.5 102870 72
2005-10-04 07:45 51°24.377 2°56.783 -999 4 14.4 102890 72
2005-10-04 07:46 51°24.446 2°57.061 -999 354 14.4 102870 73
2005-10-04 07:47 51°24.538 2°57.316 -999 8 14.5 102870 74
2005-10-04 07:48 51°24.638 2°57.567 -999 6 14.5 102880 74
2005-10-04 07:49 51°24.739 2°57.822 -999 6 14.5 102880 73
2005-10-04 07:50 51°24.854 2°58.057 -999 20 14.5 102880 73
2005-10-04 07:51 51°25.006 2°58.227 -999 21 14.5 102880 74
2005-10-04 07:52 51°25.159 2°58.399 -999 12 14.5 102880 74
2005-10-04 07:53 51°25.311 2°58.57 -999 12 14.6 102890 75
2005-10-04 07:54 51°25.464 2°58.737 -999 12 14.6 102890 76
2005-10-04 07:55 51°25.613 2°58.902 -999 16 14.5 102880 74
2005-10-04 07:56 51°25.761 2°59.072 -999 16 14.5 102900 75
2005-10-04 07:57 51°25.909 2°59.242 -999 15 14.5 102880 75
2005-10-04 07:58 51°26.058 2°59.409 -999 19 14.5 102890 73
2005-10-04 07:59 51°26.209 2°59.574 -999 15 14.5 102890 75
2005-10-04 08:00 51°26.358 2°59.74 -999 20 14.5 102890 74
2005-10-04 08:01 51°26.509 2°59.894 -999 19 14.5 102890 74
2005-10-04 08:02 51°26.655 3°0.063 -999 12 14.5 102890 74
2005-10-04 08:03 51°26.803 3°0.231 -999 12 14.6 102890 75
2005-10-04 08:04 51°26.949 3°0.403 -999 12 14.5 102890 74
2005-10-04 08:05 51°27.096 3°0.573 -999 19 14.5 102890 74
2005-10-04 08:06 51°27.244 3°0.739 -999 15 14.6 102900 75
2005-10-04 08:07 51°27.392 3°0.903 -999 13 14.5 102890 73
2005-10-04 08:08 51°27.542 3°1.067 -999 18 14.5 102890 73
2005-10-04 08:09 51°27.693 3°1.232 -999 14 14.6 102900 74
2005-10-04 08:10 51°27.846 3°1.398 -999 16 14.5 102890 73
2005-10-04 08:11 51°27.999 3°1.566 -999 12 14.5 102890 73
2005-10-04 08:12 51°28.153 3°1.733 -999 22 14.5 102890 73
2005-10-04 08:13 51°28.308 3°1.902 -999 14 14.6 102890 74
2005-10-04 08:14 51°28.461 3°2.071 -999 16 14.6 102890 74
2005-10-04 08:15 51°28.616 3°2.242 -999 17 14.6 102890 73
2005-10-04 08:16 51°28.769 3°2.413 -999 24 14.4 102890 73
2005-10-04 08:17 51°28.904 3°2.62 -999 15 14.6 102900 73
2005-10-04 08:18 51°29.032 3°2.841 -999 10 14.6 102870 72
2005-10-04 08:19 51°29.162 3°3.062 -999 9 14.6 102870 73
2005-10-04 08:20 51°29.276 3°3.306 -999 6 14.7 102890 74
2005-10-04 08:21 51°29.391 3°3.549 -999 8 14.6 102880 73
2005-10-04 08:22 51°29.507 3°3.795 -999 8 14.7 102870 74
2005-10-04 08:23 51°29.623 3°4.039 -999 4 14.6 102880 73
2005-10-04 08:24 51°29.739 3°4.285 -999 8 14.6 102880 71
2005-10-04 08:25 51°29.856 3°4.532 -999 9 14.6 102870 72
2005-10-04 08:26 51°29.971 3°4.776 -999 2 14.6 102880 72
2005-10-04 08:27 51°30.085 3°5.019 -999 10 14.6 102870 72
2005-10-04 08:28 51°30.2 3°5.265 -999 3 14.6 102880 73
2005-10-04 08:29 51°30.317 3°5.514 -999 6 14.6 102880 74
2005-10-04 08:30 51°30.432 3°5.759 -999 7 14.6 102890 73
2005-10-04 08:31 51°30.547 3°6.008 -999 8 14.6 102880 74
2005-10-04 08:32 51°30.661 3°6.255 -999 10 14.6 102870 73
2005-10-04 08:33 51°30.776 3°6.502 -999 8 14.6 102890 73
2005-10-04 08:34 51°30.891 3°6.747 -999 7 14.6 102860 73
2005-10-04 08:35 51°31.005 3°6.993 -999 10 14.6 102890 73
2005-10-04 08:36 51°31.12 3°7.241 -999 7 14.6 102880 72
2005-10-04 08:37 51°31.234 3°7.489 -999 2 14.6 102870 73
2005-10-04 08:38 51°31.349 3°7.734 -999 2 14.6 102890 72
2005-10-04 08:39 51°31.461 3°7.978 -999 6 14.6 102880 72
2005-10-04 08:40 51°31.574 3°8.219 -999 7 14.6 102890 73
2005-10-04 08:41 51°31.689 3°8.46 -999 9 14.7 102890 72
2005-10-04 08:42 51°31.803 3°8.699 -999 7 14.6 102890 72
2005-10-04 08:43 51°31.915 3°8.941 -999 10 14.6 102870 72
2005-10-04 08:44 51°32.026 3°9.178 -999 12 14.7 102870 71
2005-10-04 08:45 51°32.139 3°9.411 -999 11 14.7 102890 71
2005-10-04 08:46 51°32.251 3°9.647 -999 10 14.7 102890 71
2005-10-04 08:47 51°32.364 3°9.88 -999 11 14.7 102900 72
2005-10-04 08:48 51°32.476 3°10.114 -999 7 14.7 102910 72
2005-10-04 08:49 51°32.589 3°10.347 -999 9 14.7 102900 71
2005-10-04 08:50 51°32.699 3°10.585 -999 7 14.7 102890 71
2005-10-04 08:51 51°32.811 3°10.821 -999 7 14.7 102900 70
2005-10-04 08:52 51°32.922 3°11.059 -999 7 14.7 102890 71
2005-10-04 08:53 51°33.033 3°11.297 -999 10 14.7 102910 71
2005-10-04 08:54 51°33.144 3°11.536 -999 1 14.7 102890 72
2005-10-04 08:55 51°33.257 3°11.772 -999 4 14.8 102890 73
2005-10-04 08:56 51°33.372 3°12.008 -999 4 14.7 102880 73
2005-10-04 08:57 51°33.484 3°12.245 -999 4 14.7 102900 72
2005-10-04 08:58 51°33.595 3°12.484 -999 5 14.7 102890 72
2005-10-04 08:59 51°33.708 3°12.721 -999 3 14.7 102890 71
2005-10-04 09:00 51°33.82 3°12.959 -999 6 14.7 102890 72
2005-10-04 09:01 51°33.933 3°13.197 -999 9 14.7 102880 73
2005-10-04 09:02 51°34.045 3°13.437 -999 6 14.7 102880 71
2005-10-04 09:03 51°34.158 3°13.677 -999 9 14.7 102890 72
2005-10-04 09:04 51°34.273 3°13.919 -999 5 14.8 102900 73
2005-10-04 09:05 51°34.388 3°14.161 -999 8 14.7 102890 72
2005-10-04 09:06 51°34.504 3°14.403 -999 7 14.7 102880 71
2005-10-04 09:07 51°34.619 3°14.646 -999 12 14.7 102900 71
2005-10-04 09:08 51°34.737 3°14.892 -999 6 14.7 102890 71
2005-10-04 09:09 51°34.851 3°15.141 -999 5 14.8 102890 73
2005-10-04 09:10 51°34.931 3°15.421 -999 355 14.7 102890 71
2005-10-04 09:11 51°34.994 3°15.711 -999 357 14.7 102910 71
2005-10-04 09:12 51°35.055 3°16.001 -999 352 14.8 102900 71
2005-10-04 09:13 51°35.155 3°16.25 -999 3 14.8 102900 70
2005-10-04 09:14 51°35.264 3°16.485 -999 4 14.8 102880 70
2005-10-04 09:15 51°35.377 3°16.727 -999 3 14.7 102890 69
2005-10-04 09:16 51°35.488 3°16.963 -999 9 14.7 102890 69
2005-10-04 09:17 51°35.601 3°17.201 -999 2 14.7 102900 68
2005-10-04 09:18 51°35.711 3°17.437 -999 3 14.7 102900 70
2005-10-04 09:19 51°35.822 3°17.674 -999 11 14.8 102890 70
2005-10-04 09:20 51°35.933 3°17.912 -999 8 14.8 102890 71
2005-10-04 09:21 51°36.041 3°18.151 -999 7 14.8 102890 70
2005-10-04 09:22 51°36.152 3°18.388 -999 9 14.8 102890 71
2005-10-04 09:23 51°36.261 3°18.624 -999 4 14.7 102890 69
2005-10-04 09:24 51°36.37 3°18.862 -999 3 14.7 102890 69
2005-10-04 09:25 51°36.479 3°19.102 -999 4 14.7 102900 70
2005-10-04 09:26 51°36.602 3°19.316 -999 3 14.8 102880 69
2005-10-04 09:27 51°36.738 3°19.511 -999 12 14.7 102870 68
2005-10-04 09:28 51°36.875 3°19.712 -999 12 14.7 102880 67
2005-10-04 09:29 51°37.011 3°19.912 -999 14 14.8 102870 69
2005-10-04 09:30 51°37.15 3°20.115 -999 17 14.8 102870 71
2005-10-04 09:31 51°37.292 3°20.319 -999 6 14.9 102900 71
2005-10-04 09:32 51°37.432 3°20.525 -999 8 14.8 102860 70
2005-10-04 09:33 51°37.572 3°20.731 -999 13 14.8 102880 71
2005-10-04 09:34 51°37.711 3°20.939 -999 8 14.8 102880 70
2005-10-04 09:35 51°37.85 3°21.15 -999 12 14.8 102870 71
2005-10-04 09:36 51°37.992 3°21.359 -999 14 14.9 102880 72
2005-10-04 09:37 51°38.133 3°21.567 -999 14 14.8 102840 70
2005-10-04 09:38 51°38.274 3°21.776 -999 10 14.8 102860 69
2005-10-04 09:39 51°38.412 3°21.996 -999 15 14.8 102870 69
2005-10-04 09:40 51°38.542 3°22.23 -999 6 14.9 102890 70
2005-10-04 09:41 51°38.673 3°22.466 -999 13 14.9 102850 71
2005-10-04 09:42 51°38.804 3°22.701 -999 11 14.9 102880 70
2005-10-04 09:43 51°38.936 3°22.937 -999 4 14.9 102870 71
2005-10-04 09:44 51°39.067 3°23.171 -999 8 14.9 102870 70
2005-10-04 09:45 51°39.197 3°23.405 -999 9 14.8 102870 71
2005-10-04 09:46 51°39.326 3°23.639 -999 14 14.9 102880 70
2005-10-04 09:47 51°39.446 3°23.887 -999 5 14.8 102880 69
2005-10-04 09:48 51°39.56 3°24.143 -999 1 14.9 102890 70
2005-10-04 09:49 51°39.675 3°24.398 -999 3 14.8 102880 69
2005-10-04 09:50 51°39.79 3°24.655 -999 6 14.9 102860 69
2005-10-04 09:51 51°39.907 3°24.911 -999 3 14.9 102880 69
2005-10-04 09:52 51°40.023 3°25.17 -999 9 14.9 102880 69
2005-10-04 09:53 51°40.136 3°25.429 -999 4 14.9 102880 68
2005-10-04 09:54 51°40.252 3°25.685 -999 1 14.9 102870 68
2005-10-04 09:55 51°40.368 3°25.944 -999 3 14.9 102870 71
2005-10-04 09:56 51°40.497 3°26.176 -999 16 14.8 102880 70
2005-10-04 09:57 51°40.651 3°26.366 -999 10 14.9 102850 70
2005-10-04 09:58 51°40.802 3°26.563 -999 16 14.9 102860 68
2005-10-04 09:59 51°40.955 3°26.757 -999 14 14.9 102860 70
2005-10-04 10:00 51°41.107 3°26.951 -999 17 14.9 102860 69
2005-10-04 10:01 51°41.259 3°27.146 -999 13 15 102870 71
2005-10-04 10:02 51°41.413 3°27.341 -999 13 15 102870 72
2005-10-04 10:03 51°41.566 3°27.535 -999 12 14.9 102870 71
2005-10-04 10:04 51°41.718 3°27.729 -999 17 14.9 102860 70
2005-10-04 10:05 51°41.872 3°27.923 -999 18 14.9 102860 69
2005-10-04 10:06 51°42.027 3°28.116 -999 15 14.9 102860 71
2005-10-04 10:07 51°42.18 3°28.306 -999 10 14.9 102880 73
2005-10-04 10:08 51°42.334 3°28.498 -999 14 14.9 102860 72
2005-10-04 10:09 51°42.486 3°28.689 -999 13 14.9 102880 72
2005-10-04 10:10 51°42.637 3°28.878 -999 15 14.8 102880 72
2005-10-04 10:11 51°42.787 3°29.065 -999 16 14.9 102860 72
2005-10-04 10:12 51°42.938 3°29.252 -999 19 14.8 102860 69
2005-10-04 10:13 51°43.088 3°29.439 -999 20 14.8 102850 70
2005-10-04 10:14 51°43.239 3°29.624 -999 11 14.8 102860 72
2005-10-04 10:15 51°43.389 3°29.807 -999 9 14.8 102870 71
2005-10-04 10:16 51°43.541 3°29.991 -999 16 14.8 102870 71
2005-10-04 10:17 51°43.693 3°30.174 -999 12 14.8 102870 73
2005-10-04 10:18 51°43.847 3°30.352 -999 16 14.8 102860 72
2005-10-04 10:19 51°43.999 3°30.531 -999 11 14.8 102860 71
2005-10-04 10:20 51°44.154 3°30.711 -999 17 14.9 102870 74
2005-10-04 10:21 51°44.307 3°30.888 -999 15 14.8 102870 72
2005-10-04 10:22 51°44.461 3°31.066 -999 9 14.8 102850 73
2005-10-04 10:23 51°44.579 3°31.295 -999 348 14.8 102880 74
2005-10-04 10:24 51°44.644 3°31.586 -999 350 14.8 102860 71
2005-10-04 10:25 51°44.711 3°31.879 -999 355 14.9 102870 72
2005-10-04 10:26 51°44.779 3°32.173 -999 352 14.9 102870 72
2005-10-04 10:27 51°44.847 3°32.468 -999 348 14.9 102870 71
2005-10-04 10:28 51°44.914 3°32.763 -999 358 14.9 102870 72
2005-10-04 10:29 51°44.981 3°33.059 -999 350 14.9 102870 72
2005-10-04 10:30 51°45.048 3°33.357 -999 -999 14.9 102880 72
2005-10-04 10:31 51°45.114 3°33.656 -999 359 14.9 102890 72
2005-10-04 10:32 51°45.18 3°33.957 -999 352 14.8 102880 71
2005-10-04 10:33 51°45.249 3°34.257 -999 357 14.9 102880 73
2005-10-04 10:34 51°45.318 3°34.559 -999 357 14.9 102880 75
2005-10-04 10:35 51°45.389 3°34.86 -999 -999 14.9 102860 74
2005-10-04 10:36 51°45.459 3°35.162 -999 358 14.8 102880 74
2005-10-04 10:37 51°45.531 3°35.464 -999 354 14.7 102870 74
2005-10-04 10:38 51°45.601 3°35.763 -999 348 14.8 102870 75
2005-10-04 10:39 51°45.651 3°36 -999 337 14.8 102870 75
2005-10-04 10:40 51°45.628 3°36.128 -999 314 14.7 102870 73
2005-10-04 10:41 51°45.581 3°36.201 -999 275 14.7 102880 75
2005-10-04 10:42 51°45.497 3°36.187 -999 229 14.7 102910 75
2005-10-04 10:43 51°45.422 3°36.158 -999 230 14.6 102910 75
2005-10-04 10:44 51°45.352 3°36.137 -999 239 14.7 102900 76
2005-10-04 10:45 51°45.29 3°36.12 -999 255 14.6 102900 76
2005-10-04 10:46 51°45.237 3°36.104 -999 234 14.6 102900 76
2005-10-04 10:47 51°45.189 3°36.088 -999 236 14.5 102900 76
2005-10-04 10:48 51°45.143 3°36.072 -999 239 14.5 102900 76
2005-10-04 10:49 51°45.099 3°36.054 -999 232 14.5 102900 76
2005-10-04 10:50 51°45.053 3°36.036 -999 231 14.6 102910 78
2005-10-04 10:51 51°45.005 3°36.018 -999 231 14.5 102910 77
2005-10-04 10:52 51°44.955 3°35.999 -999 239 14.5 102910 77
2005-10-04 10:53 51°44.907 3°35.984 -999 242 14.4 102910 76
2005-10-04 10:54 51°44.858 3°35.97 -999 244 14.4 102900 75
2005-10-04 10:55 51°44.811 3°35.958 -999 243 14.5 102910 76
2005-10-04 10:56 51°44.763 3°35.946 -999 243 14.5 102900 76
2005-10-04 10:57 51°44.715 3°35.933 -999 239 14.6 102900 78
2005-10-04 10:58 51°44.667 3°35.921 -999 236 14.6 102900 77
2005-10-04 10:59 51°44.621 3°35.906 -999 233 14.6 102900 77
2005-10-04 11:00 51°44.577 3°35.878 -999 202 14.6 102910 77
2005-10-04 11:01 51°44.535 3°35.837 -999 179 14.5 102910 76
2005-10-04 11:02 51°44.503 3°35.785 -999 143 14.6 102910 76
2005-10-04 11:03 51°44.481 3°35.722 -999 124 14.6 102910 76
2005-10-04 11:04 51°44.47 3°35.645 -999 122 14.6 102910 77
2005-10-04 11:05 51°44.461 3°35.559 -999 127 14.6 102910 79
2005-10-04 11:06 51°44.451 3°35.469 -999 127 14.6 102910 77
2005-10-04 11:07 51°44.44 3°35.382 -999 131 14.5 102920 76
2005-10-04 11:08 51°44.43 3°35.305 -999 130 14.5 102920 76
2005-10-04 11:09 51°44.419 3°35.233 -999 126 14.5 102920 76
2005-10-04 11:10 51°44.407 3°35.163 -999 127 14.5 102920 76
2005-10-04 11:11 51°44.394 3°35.092 -999 125 14.6 102920 77
2005-10-04 11:12 51°44.378 3°35.022 -999 127 14.5 102930 76
2005-10-04 11:13 51°44.364 3°34.953 -999 135 14.5 102920 76
2005-10-04 11:14 51°44.352 3°34.884 -999 136 14.6 102920 77
2005-10-04 11:15 51°44.336 3°34.813 -999 128 14.6 102920 77
2005-10-04 11:16 51°44.327 3°34.738 -999 113 14.6 102920 78
2005-10-04 11:17 51°44.334 3°34.658 -999 86 14.7 102920 80
2005-10-04 11:18 51°44.357 3°34.594 -999 70 14.6 102910 77
2005-10-04 11:19 51°44.391 3°34.555 -999 51 14.6 102910 79
2005-10-04 11:20 51°44.421 3°34.553 -999 27 14.5 102890 77
2005-10-04 11:21 51°44.427 3°34.551 -999 31 14.6 102900 76
2005-10-04 11:22 51°44.434 3°34.557 -999 5 14.6 102900 76
2005-10-04 11:23 51°44.446 3°34.6 -999 10 14.7 102900 74
2005-10-04 11:24 51°44.476 3°34.649 -999 6 14.7 102900 75
2005-10-04 11:25 51°44.502 3°34.71 -999 3 14.8 102900 76
2005-10-04 11:26 51°44.528 3°34.761 -999 12 14.8 102900 76
2005-10-04 11:27 51°44.555 3°34.801 -999 15 14.8 102900 75
2005-10-04 11:28 51°44.583 3°34.843 -999 7 14.9 102900 76
2005-10-04 11:29 51°44.607 3°34.899 -999 353 14.9 102900 77
2005-10-04 11:30 51°44.63 3°34.965 -999 355 15 102900 77
2005-10-04 11:31 51°44.652 3°35.028 -999 2 14.9 102890 74
2005-10-04 11:32 51°44.676 3°35.088 -999 356 14.8 102890 72
2005-10-04 11:33 51°44.695 3°35.158 -999 349 14.9 102900 74
2005-10-04 11:34 51°44.702 3°35.234 -999 339 15 102880 75
2005-10-04 11:35 51°44.704 3°35.302 -999 339 15 102890 74
2005-10-04 11:36 51°44.708 3°35.368 -999 343 15 102880 74
2005-10-04 11:37 51°44.713 3°35.432 -999 355 15 102890 74
2005-10-04 11:38 51°44.721 3°35.494 -999 347 15 102890 74
2005-10-04 11:39 51°44.727 3°35.56 -999 347 15 102890 73
2005-10-04 11:40 51°44.729 3°35.63 -999 331 15 102880 73
2005-10-04 11:41 51°44.728 3°35.702 -999 330 15.1 102870 74
2005-10-04 11:42 51°44.728 3°35.773 -999 344 15 102880 74
2005-10-04 11:43 51°44.729 3°35.842 -999 338 15 102870 73
2005-10-04 11:44 51°44.73 3°35.913 -999 334 14.9 102860 73
2005-10-04 11:45 51°44.731 3°35.985 -999 340 14.9 102870 73
2005-10-04 11:46 51°44.732 3°36.056 -999 341 14.9 102870 73
2005-10-04 11:47 51°44.732 3°36.127 -999 342 14.9 102870 72
2005-10-04 11:48 51°44.733 3°36.199 -999 331 15 102870 73
2005-10-04 11:49 51°44.733 3°36.271 -999 336 14.9 102870 72
2005-10-04 11:50 51°44.734 3°36.344 -999 334 14.9 102870 73
2005-10-04 11:51 51°44.738 3°36.419 -999 333 14.9 102870 73
2005-10-04 11:52 51°44.74 3°36.494 -999 341 14.8 102860 74
2005-10-04 11:53 51°44.742 3°36.569 -999 331 14.9 102870 74
2005-10-04 11:54 51°44.744 3°36.644 -999 334 14.9 102860 73
2005-10-04 11:55 51°44.747 3°36.72 -999 336 14.9 102860 74
2005-10-04 11:56 51°44.751 3°36.797 -999 331 14.9 102850 74
2005-10-04 11:57 51°44.752 3°36.873 -999 336 14.9 102860 73
2005-10-04 11:58 51°44.754 3°36.951 -999 330 14.8 102850 74
2005-10-04 11:59 51°44.757 3°37.029 -999 335 14.9 102840 75
2005-10-04 12:00 51°44.761 3°37.111 -999 330 14.9 102840 75
2005-10-04 12:01 51°44.758 3°37.2 -999 317 14.8 102840 75
2005-10-04 12:02 51°44.742 3°37.298 -999 310 14.8 102850 74
2005-10-04 12:03 51°44.722 3°37.396 -999 300 14.9 102840 74
2005-10-04 12:04 51°44.699 3°37.484 -999 301 15 102840 76
2005-10-04 12:05 51°44.68 3°37.542 -999 302 15 102840 75
2005-10-04 12:06 51°44.661 3°37.584 -999 300 15 102840 75
2005-10-04 12:07 51°44.644 3°37.614 -999 307 15 102840 75
2005-10-04 12:08 51°44.627 3°37.636 -999 295 15 102840 73
2005-10-04 12:09 51°44.608 3°37.653 -999 292 15 102840 73
2005-10-04 12:10 51°44.589 3°37.666 -999 283 15 102850 73
2005-10-04 12:11 51°44.564 3°37.697 -999 260 15 102840 74
2005-10-04 12:12 51°44.49 3°37.697 -999 154 14.9 102850 75
2005-10-04 12:13 51°44.478 3°37.528 -999 105 14.9 102860 73
2005-10-04 12:14 51°44.455 3°37.231 -999 96 14.8 102850 74
2005-10-04 12:15 51°44.452 3°36.918 -999 91 14.8 102850 74
2005-10-04 12:16 51°44.461 3°36.593 -999 94 14.8 102840 75
2005-10-04 12:17 51°44.461 3°36.264 -999 95 14.9 102850 75
2005-10-04 12:18 51°44.437 3°35.935 -999 99 14.8 102840 75
2005-10-04 12:19 51°44.414 3°35.602 -999 92 14.8 102840 74
2005-10-04 12:20 51°44.384 3°35.28 -999 99 14.9 102850 76
2005-10-04 12:21 51°44.349 3°34.954 -999 103 14.9 102840 75
2005-10-04 12:22 51°44.312 3°34.627 -999 102 14.8 102840 74
2005-10-04 12:23 51°44.265 3°34.303 -999 100 14.8 102850 73
2005-10-04 12:24 51°44.22 3°33.983 -999 100 15 102840 76
2005-10-04 12:25 51°44.174 3°33.661 -999 89 14.9 102850 75
2005-10-04 12:26 51°44.09 3°33.355 -999 123 14.9 102840 75
2005-10-04 12:27 51°43.945 3°33.105 -999 144 14.9 102850 75
2005-10-04 12:28 51°43.761 3°32.912 -999 198 15 102850 75
2005-10-04 12:29 51°43.56 3°32.777 -999 213 15.1 102850 75
2005-10-04 12:30 51°43.351 3°32.692 -999 220 15.1 102840 73
2005-10-04 12:31 51°43.14 3°32.616 -999 235 15.1 102840 73
2005-10-04 12:32 51°42.923 3°32.566 -999 246 15.1 102840 74
2005-10-04 12:33 51°42.708 3°32.627 -999 269 15.1 102840 73
2005-10-04 12:34 51°42.505 3°32.788 -999 291 15.2 102830 75
2005-10-04 12:35 51°42.3 3°32.954 -999 285 15.1 102820 73
2005-10-04 12:36 51°42.094 3°33.117 -999 290 15.1 102820 73
2005-10-04 12:37 51°41.889 3°33.28 -999 271 15.1 102820 73
2005-10-04 12:38 51°41.682 3°33.442 -999 288 15.3 102830 74
2005-10-04 12:39 51°41.476 3°33.598 -999 283 15.3 102820 74
2005-10-04 12:40 51°41.272 3°33.758 -999 288 15.2 102810 73
2005-10-04 12:41 51°41.067 3°33.917 -999 286 15.3 102810 74
2005-10-04 12:42 51°40.864 3°34.081 -999 276 15.3 102810 74
2005-10-04 12:43 51°40.659 3°34.23 -999 254 15.2 102810 73
2005-10-04 12:44 51°40.444 3°34.228 -999 208 15.3 102820 74
2005-10-04 12:45 51°40.281 3°34.061 -999 140 15.3 102820 73
2005-10-04 12:46 51°40.142 3°33.845 -999 133 15.3 102820 73
2005-10-04 12:47 51°40.002 3°33.637 -999 147 15.3 102810 74
2005-10-04 12:48 51°39.865 3°33.423 -999 133 15.3 102810 75
2005-10-04 12:49 51°39.76 3°33.189 -999 131 15.3 102810 75
2005-10-04 12:50 51°39.653 3°32.946 -999 143 15.1 102810 74
2005-10-04 12:51 51°39.558 3°32.688 -999 45 15.1 102810 75
2005-10-04 12:52 51°39.479 3°32.425 -999 130 15.1 102810 75
2005-10-04 12:53 51°39.402 3°32.16 -999 119 15.1 102800 75
2005-10-04 12:54 51°39.328 3°31.893 -999 130 15.2 102810 75
2005-10-04 12:55 51°39.251 3°31.624 -999 124 15.1 102800 75
2005-10-04 12:56 51°39.147 3°31.38 -999 186 15.1 102820 75
2005-10-04 12:57 51°38.97 3°31.261 -999 224 15.2 102810 76
2005-10-04 12:58 51°38.785 3°31.148 -999 212 15.2 102810 75
2005-10-04 12:59 51°38.607 3°31.037 -999 210 15.1 102810 73
2005-10-04 13:00 51°38.421 3°30.92 -999 221 15.2 102810 75
2005-10-04 13:01 51°38.238 3°30.816 -999 217 15.2 102810 72
2005-10-04 13:02 51°38.051 3°30.708 -999 209 15.2 102800 73
2005-10-04 13:03 51°37.865 3°30.603 -999 203 15.3 102800 74
2005-10-04 13:04 51°37.674 3°30.5 -999 186 15.4 102790 73
2005-10-04 13:05 51°37.49 3°30.39 -999 202 15.5 102790 70
2005-10-04 13:06 51°37.301 3°30.277 -999 180 15.6 102780 72
2005-10-04 13:07 51°37.115 3°30.207 -999 252 15.6 102790 70
2005-10-04 13:08 51°36.985 3°30.278 -999 257 15.5 102770 71
2005-10-04 13:09 51°36.882 3°30.392 -999 260 15.4 102760 73
2005-10-04 13:10 51°36.798 3°30.536 -999 275 15.4 102760 73
2005-10-04 13:11 51°36.741 3°30.692 -999 282 15.3 102740 74
2005-10-04 13:12 51°36.713 3°30.838 -999 300 15.3 102740 73
2005-10-04 13:13 51°36.705 3°30.982 -999 309 15.4 102730 74
2005-10-04 13:14 51°36.71 3°31.115 -999 323 15.4 102730 74
2005-10-04 13:15 51°36.723 3°31.243 -999 327 15.4 102730 73
2005-10-04 13:16 51°36.744 3°31.359 -999 333 15.4 102730 73
2005-10-04 13:17 51°36.767 3°31.467 -999 351 15.3 102730 72
2005-10-04 13:18 51°36.799 3°31.559 -999 356 15.4 102740 72
2005-10-04 13:19 51°36.84 3°31.637 -999 13 15.4 102740 72
2005-10-04 13:20 51°36.889 3°31.711 -999 16 15.4 102740 72
2005-10-04 13:21 51°36.938 3°31.767 -999 20 15.3 102740 71
2005-10-04 13:22 51°36.988 3°31.804 -999 33 15.3 102730 71
2005-10-04 13:23 51°37.036 3°31.824 -999 52 15.2 102740 71
2005-10-04 13:24 51°37.079 3°31.813 -999 77 15.2 102720 71
2005-10-04 13:25 51°37.117 3°31.778 -999 77 15.2 102750 72
2005-10-04 13:26 51°37.145 3°31.731 -999 110 15.2 102760 73
2005-10-04 13:27 51°37.156 3°31.665 -999 130 15.2 102770 72
2005-10-04 13:28 51°37.15 3°31.595 -999 128 15.2 102770 73
2005-10-04 13:29 51°37.13 3°31.52 -999 133 15.2 102770 72
2005-10-04 13:30 51°37.098 3°31.46 -999 160 15.2 102770 72
2005-10-04 13:31 51°37.043 3°31.422 -999 191 15.2 102760 71
2005-10-04 13:32 51°36.977 3°31.41 -999 204 15.2 102760 71
2005-10-04 13:33 51°36.932 3°31.372 -999 131 15.3 102770 71
2005-10-04 13:34 51°36.923 3°31.305 -999 119 15.3 102760 71
2005-10-04 13:35 51°36.921 3°31.231 -999 124 15.3 102740 71
2005-10-04 13:36 51°36.917 3°31.16 -999 123 15.2 102740 70
2005-10-04 13:37 51°36.914 3°31.094 -999 128 15.3 102740 72
2005-10-04 13:38 51°36.908 3°31.03 -999 128 15.3 102750 73
2005-10-04 13:39 51°36.9 3°30.963 -999 124 15.3 102740 72
2005-10-04 13:40 51°36.89 3°30.891 -999 125 15.2 102740 71
2005-10-04 13:41 51°36.879 3°30.822 -999 130 15.3 102730 71
2005-10-04 13:42 51°36.868 3°30.753 -999 127 15.3 102740 71
2005-10-04 13:43 51°36.857 3°30.683 -999 128 15.4 102730 73
2005-10-04 13:44 51°36.846 3°30.614 -999 126 15.3 102730 72
2005-10-04 13:45 51°36.837 3°30.546 -999 130 15.3 102730 72
2005-10-04 13:46 51°36.828 3°30.478 -999 133 15.3 102730 72
2005-10-04 13:47 51°36.819 3°30.411 -999 129 15.3 102730 71
2005-10-04 13:48 51°36.81 3°30.342 -999 124 15.3 102730 71
2005-10-04 13:49 51°36.802 3°30.272 -999 133 15.3 102720 72
2005-10-04 13:50 51°36.793 3°30.201 -999 128 15.3 102730 70
2005-10-04 13:51 51°36.783 3°30.132 -999 125 15.3 102730 71
2005-10-04 13:52 51°36.773 3°30.06 -999 45 15.4 102730 72
2005-10-04 13:53 51°36.763 3°29.99 -999 131 15.4 102730 71
2005-10-04 13:54 51°36.753 3°29.918 -999 135 15.3 102730 70
2005-10-04 13:55 51°36.744 3°29.848 -999 130 15.4 102730 71
2005-10-04 13:56 51°36.735 3°29.776 -999 138 15.3 102730 69
2005-10-04 13:57 51°36.727 3°29.705 -999 44 15.4 102730 71
2005-10-04 13:58 51°36.721 3°29.633 -999 136 15.4 102730 71
2005-10-04 13:59 51°36.712 3°29.563 -999 136 15.3 102730 70
2005-10-04 14:00 51°36.704 3°29.493 -999 140 15.4 102730 70
2005-10-04 14:01 51°36.695 3°29.423 -999 130 15.4 102730 70
2005-10-04 14:02 51°36.688 3°29.351 -999 134 15.4 102730 71
2005-10-04 14:03 51°36.681 3°29.28 -999 139 15.4 102730 73
2005-10-04 14:04 51°36.673 3°29.211 -999 133 15.5 102730 73
2005-10-04 14:05 51°36.666 3°29.141 -999 134 15.4 102730 71
2005-10-04 14:06 51°36.66 3°29.07 -999 133 15.4 102730 69
2005-10-04 14:07 51°36.656 3°28.997 -999 130 15.4 102730 70
2005-10-04 14:08 51°36.651 3°28.925 -999 131 15.4 102730 69
2005-10-04 14:09 51°36.645 3°28.859 -999 127 15.4 102720 69
2005-10-04 14:10 51°36.641 3°28.79 -999 129 15.4 102730 69
2005-10-04 14:11 51°36.641 3°28.723 -999 121 15.4 102730 71
2005-10-04 14:12 51°36.65 3°28.686 -999 113 15.4 102720 69
2005-10-04 14:13 51°36.659 3°28.672 -999 103 15.4 102730 70
2005-10-04 14:14 51°36.675 3°28.642 -999 106 15.4 102720 70
2005-10-04 14:15 51°36.689 3°28.555 -999 110 15.4 102720 69
2005-10-04 14:16 51°36.699 3°28.468 -999 122 15.5 102720 70
2005-10-04 14:17 51°36.713 3°28.386 -999 130 15.5 102710 70
2005-10-04 14:18 51°36.725 3°28.311 -999 123 15.4 102720 70
2005-10-04 14:19 51°36.74 3°28.24 -999 110 15.4 102710 69
2005-10-04 14:20 51°36.751 3°28.17 -999 119 15.4 102710 68
2005-10-04 14:21 51°36.751 3°28.104 -999 137 15.5 102720 70
2005-10-04 14:22 51°36.746 3°28.036 -999 225 15.4 102710 68
2005-10-04 14:23 51°36.739 3°27.968 -999 135 15.4 102720 66
2005-10-04 14:24 51°36.73 3°27.901 -999 144 15.4 102710 66
2005-10-04 14:25 51°36.716 3°27.836 -999 142 15.5 102710 67
2005-10-04 14:26 51°36.701 3°27.77 -999 225 15.5 102710 71
2005-10-04 14:27 51°36.691 3°27.703 -999 45 15.5 102710 70
2005-10-04 14:28 51°36.679 3°27.638 -999 136 15.5 102710 70
2005-10-04 14:29 51°36.656 3°27.58 -999 144 15.4 102700 69
2005-10-04 14:30 51°36.635 3°27.52 -999 152 15.4 102700 70
2005-10-04 14:31 51°36.614 3°27.456 -999 147 15.5 102700 70
2005-10-04 14:32 51°36.594 3°27.392 -999 147 15.5 102710 71
2005-10-04 14:33 51°36.573 3°27.33 -999 137 15.5 102710 70
2005-10-04 14:34 51°36.561 3°27.269 -999 130 15.4 102700 69
2005-10-04 14:35 51°36.551 3°27.206 -999 133 15.4 102700 68
2005-10-04 14:36 51°36.544 3°27.143 -999 134 15.4 102700 69
2005-10-04 14:37 51°36.538 3°27.081 -999 138 15.5 102700 70
2005-10-04 14:38 51°36.53 3°27.018 -999 140 15.5 102700 70
2005-10-04 14:39 51°36.523 3°26.956 -999 131 15.5 102700 70
2005-10-04 14:40 51°36.519 3°26.888 -999 136 15.4 102690 68
2005-10-04 14:41 51°36.516 3°26.824 -999 140 15.4 102700 66
2005-10-04 14:42 51°36.514 3°26.757 -999 134 15.5 102700 68
2005-10-04 14:43 51°36.508 3°26.695 -999 142 15.5 102700 68
2005-10-04 14:44 51°36.498 3°26.635 -999 140 15.5 102700 70
2005-10-04 14:45 51°36.49 3°26.572 -999 139 15.5 102700 71
2005-10-04 14:46 51°36.488 3°26.502 -999 123 15.5 102700 70
2005-10-04 14:47 51°36.496 3°26.434 -999 116 15.5 102690 69
2005-10-04 14:48 51°36.514 3°26.366 -999 108 15.5 102700 69
2005-10-04 14:49 51°36.54 3°26.302 -999 111 15.5 102680 71
2005-10-04 14:50 51°36.563 3°26.26 -999 97 15.6 102690 71
2005-10-04 14:51 51°36.581 3°26.238 -999 95 15.5 102690 68
2005-10-04 14:52 51°36.594 3°26.23 -999 92 15.6 102690 71
2005-10-04 14:53 51°36.604 3°26.227 -999 91 15.5 102690 70
2005-10-04 14:54 51°36.608 3°26.228 -999 104 15.5 102680 69
2005-10-04 14:55 51°36.612 3°26.228 -999 110 15.5 102680 69
2005-10-04 14:56 51°36.63 3°26.177 -999 121 15.5 102690 68
2005-10-04 14:57 51°36.603 3°26.011 -999 227 15.5 102700 69
2005-10-04 14:58 51°36.526 3°25.749 -999 225 15.5 102700 70
2005-10-04 14:59 51°36.45 3°25.457 -999 121 15.5 102700 69
2005-10-04 15:00 51°36.375 3°25.156 -999 115 15.5 102680 69
2005-10-04 15:01 51°36.298 3°24.856 -999 123 15.5 102690 69
2005-10-04 15:02 51°36.213 3°24.572 -999 124 15.5 102680 69
2005-10-04 15:03 51°36.129 3°24.276 -999 122 15.5 102670 69
2005-10-04 15:04 51°36.044 3°23.98 -999 131 15.5 102690 69
2005-10-04 15:05 51°35.961 3°23.689 -999 145 15.5 102690 70
2005-10-04 15:06 51°35.876 3°23.39 -999 120 15.6 102690 71
2005-10-04 15:07 51°35.792 3°23.09 -999 148 15.6 102680 71
2005-10-04 15:08 51°35.706 3°22.792 -999 131 15.5 102690 69
2005-10-04 15:09 51°35.62 3°22.5 -999 127 15.5 102680 70
2005-10-04 15:10 51°35.532 3°22.201 -999 125 15.5 102680 70
2005-10-04 15:11 51°35.444 3°21.913 -999 121 15.5 102680 69
2005-10-04 15:12 51°35.361 3°21.607 -999 144 15.5 102680 69
2005-10-04 15:13 51°35.272 3°21.313 -999 131 15.5 102680 70
2005-10-04 15:14 51°35.188 3°21.02 -999 136 15.5 102680 69
2005-10-04 15:15 51°35.107 3°20.717 -999 129 15.5 102680 70
2005-10-04 15:16 51°35.021 3°20.413 -999 125 15.5 102680 70
2005-10-04 15:17 51°34.935 3°20.118 -999 119 15.5 102680 71
2005-10-04 15:18 51°34.838 3°19.842 -999 128 15.5 102670 70
2005-10-04 15:19 51°34.735 3°19.559 -999 141 15.5 102660 70
2005-10-04 15:20 51°34.636 3°19.286 -999 147 15.5 102670 69
2005-10-04 15:21 51°34.534 3°19.011 -999 137 15.5 102670 70
2005-10-04 15:22 51°34.434 3°18.722 -999 132 15.5 102670 71
2005-10-04 15:23 51°34.338 3°18.441 -999 131 15.5 102670 70
2005-10-04 15:24 51°34.238 3°18.156 -999 126 15.5 102670 69
2005-10-04 15:25 51°34.137 3°17.876 -999 132 15.5 102660 69
2005-10-04 15:26 51°34.035 3°17.586 -999 140 15.4 102670 69
2005-10-04 15:27 51°33.941 3°17.301 -999 137 15.5 102670 70
2005-10-04 15:28 51°33.842 3°17.003 -999 141 15.5 102670 72
2005-10-04 15:29 51°33.744 3°16.717 -999 43 15.6 102670 72
2005-10-04 15:30 51°33.646 3°16.428 -999 125 15.5 102670 69
2005-10-04 15:31 51°33.552 3°16.146 -999 137 15.5 102680 69
2005-10-04 15:32 51°33.458 3°15.855 -999 136 15.5 102680 69
2005-10-04 15:33 51°33.357 3°15.562 -999 136 15.5 102670 67
2005-10-04 15:34 51°33.262 3°15.281 -999 144 15.5 102680 67
2005-10-04 15:35 51°33.162 3°14.998 -999 139 15.6 102690 69
2005-10-04 15:36 51°33.064 3°14.712 -999 141 15.6 102680 69
2005-10-04 15:37 51°32.965 3°14.415 -999 138 15.6 102690 70
2005-10-04 15:38 51°32.863 3°14.14 -999 122 15.6 102700 70
2005-10-04 15:39 51°32.763 3°13.851 -999 136 15.6 102690 70
2005-10-04 15:40 51°32.662 3°13.574 -999 126 15.7 102690 71
2005-10-04 15:41 51°32.559 3°13.294 -999 138 15.6 102700 71
2005-10-04 15:42 51°32.457 3°13.009 -999 151 15.6 102690 70
2005-10-04 15:43 51°32.352 3°12.731 -999 148 15.6 102700 69
2005-10-04 15:44 51°32.247 3°12.455 -999 130 15.6 102690 70
2005-10-04 15:45 51°32.142 3°12.177 -999 151 15.5 102700 70
2005-10-04 15:46 51°32.04 3°11.896 -999 145 15.6 102700 70
2005-10-04 15:47 51°31.926 3°11.625 -999 154 15.5 102700 69
2005-10-04 15:48 51°31.805 3°11.369 -999 157 15.5 102690 69
2005-10-04 15:49 51°31.686 3°11.107 -999 162 15.5 102690 68
2005-10-04 15:50 51°31.563 3°10.851 -999 174 15.6 102700 69
2005-10-04 15:51 51°31.436 3°10.592 -999 153 15.6 102700 68
2005-10-04 15:52 51°31.316 3°10.329 -999 166 15.5 102700 68
2005-10-04 15:53 51°31.188 3°10.077 -999 147 15.5 102690 68
2005-10-04 15:54 51°31.069 3°9.815 -999 130 15.7 102700 71
2005-10-04 15:55 51°30.943 3°9.549 -999 156 15.7 102700 71
2005-10-04 15:56 51°30.818 3°9.289 -999 144 15.6 102690 69
2005-10-04 15:57 51°30.696 3°9.028 -999 149 15.6 102700 69
2005-10-04 15:58 51°30.575 3°8.764 -999 154 15.6 102700 70
2005-10-04 15:59 51°30.451 3°8.506 -999 144 15.7 102700 71
2005-10-04 16:00 51°30.33 3°8.236 -999 149 15.6 102700 70
2005-10-04 16:01 51°30.204 3°7.963 -999 127 15.6 102700 69
2005-10-04 16:02 51°30.078 3°7.694 -999 139 15.6 102700 69
2005-10-04 16:03 51°29.954 3°7.425 -999 138 15.6 102700 69
2005-10-04 16:04 51°29.826 3°7.161 -999 140 15.6 102690 70
2005-10-04 16:05 51°29.702 3°6.895 -999 151 15.6 102690 69
2005-10-04 16:06 51°29.575 3°6.623 -999 153 15.5 102700 68
2005-10-04 16:07 51°29.453 3°6.354 -999 164 15.5 102690 69
2005-10-04 16:08 51°29.326 3°6.075 -999 160 15.5 102690 70
2005-10-04 16:09 51°29.197 3°5.806 -999 136 15.5 102700 69
2005-10-04 16:10 51°29.07 3°5.539 -999 144 15.6 102700 70
2005-10-04 16:11 51°28.941 3°5.267 -999 149 15.5 102700 68
2005-10-04 16:12 51°28.809 3°4.998 -999 152 15.6 102700 70
2005-10-04 16:13 51°28.679 3°4.725 -999 145 15.5 102700 69
2005-10-04 16:14 51°28.549 3°4.461 -999 129 15.5 102700 69
2005-10-04 16:15 51°28.424 3°4.185 -999 147 15.5 102700 70
2005-10-04 16:16 51°28.292 3°3.918 -999 166 15.5 102700 69
2005-10-04 16:17 51°28.167 3°3.644 -999 129 15.5 102700 71
2005-10-04 16:18 51°28.039 3°3.372 -999 134 15.5 102700 71
2005-10-04 16:19 51°27.908 3°3.104 -999 158 15.5 102700 71
2005-10-04 16:20 51°27.779 3°2.826 -999 141 15.5 102700 70
2005-10-04 16:21 51°27.65 3°2.553 -999 140 15.5 102700 71
2005-10-04 16:22 51°27.522 3°2.279 -999 163 15.5 102700 72
2005-10-04 16:23 51°27.394 3°2.011 -999 155 15.5 102700 71
2005-10-04 16:24 51°27.273 3°1.737 -999 157 15.6 102700 73
2005-10-04 16:25 51°27.159 3°1.448 -999 145 15.5 102700 72
2005-10-04 16:26 51°27.046 3°1.16 -999 148 15.5 102700 72
2005-10-04 16:27 51°26.932 3°0.874 -999 141 15.5 102700 71
2005-10-04 16:28 51°26.822 3°0.584 -999 150 15.5 102700 71
2005-10-04 16:29 51°26.708 3°0.295 -999 149 15.5 102700 71
2005-10-04 16:30 51°26.594 3°0.006 -999 148 15.5 102700 72
2005-10-04 16:31 51°26.479 2°59.714 -999 135 15.5 102700 72
2005-10-04 16:32 51°26.366 2°59.427 -999 136 15.5 102700 72
2005-10-04 16:33 51°26.229 2°59.18 -999 209 15.5 102700 72
2005-10-04 16:34 51°26.029 2°59.108 -999 268 15.6 102710 72
2005-10-04 16:35 51°25.822 2°59.097 -999 263 15.6 102710 71
2005-10-04 16:36 51°25.611 2°59.082 -999 266 15.6 102700 72
2005-10-04 16:37 51°25.403 2°59.048 -999 243 15.6 102710 72
2005-10-04 16:38 51°25.218 2°58.895 -999 201 15.6 102700 73
2005-10-04 16:39 51°25.035 2°58.71 -999 200 15.9 102710 72
2005-10-04 16:40 51°24.86 2°58.533 -999 212 15.9 102700 72
2005-10-04 16:41 51°24.674 2°58.355 -999 188 16.1 102700 73
2005-10-04 16:42 51°24.49 2°58.183 -999 205 16.4 102700 70
2005-10-04 16:43 51°24.309 2°58.003 -999 193 16.2 102710 70
2005-10-04 16:44 51°24.132 2°57.815 -999 235 16.3 102710 70
2005-10-04 16:45 51°23.953 2°57.623 -999 195 16.3 102710 69
2005-10-04 16:46 51°23.776 2°57.44 -999 213 16.1 102710 70
2005-10-04 16:47 51°23.596 2°57.259 -999 181 16 102710 70
2005-10-04 16:48 51°23.412 2°57.066 -999 203 15.9 102700 71
2005-10-04 16:49 51°23.236 2°56.874 -999 160 16 102700 73
2005-10-04 16:50 51°23.088 2°56.623 -999 149 16 102700 72
2005-10-04 16:51 51°22.976 2°56.324 -999 129 15.9 102690 73
2005-10-04 16:52 51°22.859 2°56.021 -999 145 15.7 102690 72
2005-10-04 16:53 51°22.723 2°55.756 -999 161 15.7 102700 73
2005-10-04 16:54 51°22.549 2°55.539 -999 214 15.6 102700 71
2005-10-04 16:55 51°22.348 2°55.39 -999 216 15.7 102710 71
2005-10-04 16:56 51°22.144 2°55.247 -999 226 15.7 102700 72
2005-10-04 16:57 51°21.947 2°55.099 -999 241 15.7 102700 74
2005-10-04 16:58 51°21.744 2°54.956 -999 224 15.7 102700 74
2005-10-04 16:59 51°21.542 2°54.813 -999 226 15.6 102700 73
2005-10-04 17:00 51°21.344 2°54.662 -999 234 15.5 102700 72
2005-10-04 17:01 51°21.138 2°54.514 -999 216 15.5 102700 73
2005-10-04 17:02 51°20.94 2°54.367 -999 224 15.5 102700 73
2005-10-04 17:03 51°20.744 2°54.22 -999 225 15.6 102700 74
2005-10-04 17:04 51°20.541 2°54.074 -999 227 15.5 102700 73
2005-10-04 17:05 51°20.34 2°53.926 -999 223 15.6 102690 74
2005-10-04 17:06 51°20.137 2°53.768 -999 227 15.5 102690 72
2005-10-04 17:07 51°19.935 2°53.61 -999 217 15.5 102700 73
2005-10-04 17:08 51°19.732 2°53.456 -999 227 15.5 102700 73
2005-10-04 17:09 51°19.533 2°53.302 -999 241 15.5 102690 73
2005-10-04 17:10 51°19.332 2°53.144 -999 228 15.5 102690 74
2005-10-04 17:11 51°19.135 2°52.988 -999 227 15.5 102690 74
2005-10-04 17:12 51°18.936 2°52.831 -999 224 15.5 102690 75
2005-10-04 17:13 51°18.733 2°52.67 -999 227 15.4 102690 72
2005-10-04 17:14 51°18.533 2°52.522 -999 226 15.4 102690 72
2005-10-04 17:15 51°18.32 2°52.41 -999 239 15.4 102690 72
2005-10-04 17:16 51°18.105 2°52.315 -999 238 15.5 102690 73
2005-10-04 17:17 51°17.888 2°52.236 -999 261 15.5 102690 73
2005-10-04 17:18 51°17.67 2°52.167 -999 252 15.4 102690 73
2005-10-04 17:19 51°17.459 2°52.146 -999 261 15.4 102680 74
2005-10-04 17:20 51°17.258 2°52.263 -999 274 15.4 102670 73
2005-10-04 17:21 51°17.072 2°52.409 -999 277 15.4 102650 74
2005-10-04 17:22 51°16.875 2°52.538 -999 286 15.5 102660 74
2005-10-04 17:23 51°16.671 2°52.638 -999 276 15.4 102650 74
2005-10-04 17:24 51°16.466 2°52.744 -999 281 15.5 102670 75
2005-10-04 17:25 51°16.258 2°52.839 -999 284 15.4 102660 74
2005-10-04 17:26 51°16.049 2°52.94 -999 275 15.4 102650 75
2005-10-04 17:27 51°15.843 2°53.04 -999 276 15.4 102650 75
2005-10-04 17:28 51°15.635 2°53.142 -999 279 15.4 102660 75
2005-10-04 17:29 51°15.429 2°53.237 -999 278 15.4 102670 75
2005-10-04 17:30 51°15.248 2°53.394 -999 297 15.4 102650 75
2005-10-04 17:31 51°15.097 2°53.61 -999 299 15.4 102630 75
2005-10-04 17:32 51°14.952 2°53.83 -999 303 15.4 102620 75
2005-10-04 17:33 51°14.811 2°54.062 -999 308 15.4 102630 75
2005-10-04 17:34 51°14.682 2°54.304 -999 310 15.4 102630 75
2005-10-04 17:35 51°14.557 2°54.54 -999 304 15.4 102610 75
2005-10-04 17:36 51°14.443 2°54.788 -999 315 15.4 102620 75
2005-10-04 17:37 51°14.354 2°55.054 -999 309 15.4 102600 75
2005-10-04 17:38 51°14.243 2°55.298 -999 307 15.5 102650 77
2005-10-04 17:39 51°14.115 2°55.417 -999 271 15.4 102660 76
2005-10-04 17:40 51°13.987 2°55.508 -999 259 15.4 102680 76
2005-10-04 17:41 51°13.864 2°55.599 -999 266 15.3 102670 76
2005-10-04 17:42 51°13.781 2°55.68 -999 301 15.3 102670 75
2005-10-04 17:43 51°13.724 2°55.764 -999 273 15.3 102690 75
2005-10-04 17:44 51°13.682 2°55.846 -999 302 15.4 102670 74
2005-10-04 17:45 51°13.666 2°55.934 -999 345 15.4 102680 74